Pierre, SD

4:17 PM CST on February 24, 2018 (GMT -0600)
Pierre Regional

Weather History for KPIR - July, 2013

Change the Weather History Date:

Sunday, July 21, 2013

  Actual Average Record
Temperature  
Mean Temperature 72 °F 76 °F  
Max Temperature 88 °F 90 °F 110 °F (1934)
Min Temperature 55 °F 63 °F 46 °F (1947)
Degree Days  
Heating Degree Days 0 0  
Month to date heating degree days 0 0  
Since 1 June heating degree days 60 53  
Since 1 July heating degree days 0 0  
Cooling Degree Days 7 11  
Month to date cooling degree days 225 212  
Year to date cooling degree days 366 378  
Since 1 June cooling degree days 344 346  
Growing Degree Days 22 (Base 50)    
Moisture  
Dew Point 61 °F    
Average Humidity 68    
Maximum Humidity 93    
Minimum Humidity 43    
Precipitation  
Precipitation 0.00 in 0.09 in 0.94 in (1978)
Month to date precipitation 2.41 1.76  
Year to date precipitation 14.23 12.53  
Sea Level Pressure  
Sea Level Pressure 29.77 in    
Wind  
Wind Speed 8 mph (SE)    
Max Wind Speed 17 mph    
Max Gust Speed 22 mph    
Visibility 10 miles    
Events      
T = Trace of Precipitation, MM = Missing Value Source: NWS Daily Summary

Daily Weather History Graph

Daily Weather History Graph

Search for Another Location

Airport or City:

Trip Planner

Search our weather history database for the weather conditions in past years. The results will help you decide how hot, cold, wet, or windy it might be!

Date:

Astronomy

Jul. 21, 2013 Rise Set
Actual Time 6:16 AM CDT 9:17 PM CDT
Civil Twilight 5:42 AM CDT 9:52 PM CDT
Nautical Twilight 4:58 AM CDT 10:36 PM CDT
Astronomical Twilight 4:05 AM CDT 11:28 PM CDT
Moon 8:15 PM CDT (7/21) 5:05 AM CDT (7/21)
Length of Visible Light 16h 09m
Length of Day
15h 00m
Waxing Gibbous, 98% of the Moon is Illuminated
Jul 21
Waxing Gibbous
Jul 22
Full
Jul 29
Last Quarter
Aug 6
New
Aug 14
First Quarter

Hourly Weather History & Observations

Time (CDT) Temp. Heat Index Dew Point Humidity Pressure Visibility Wind Dir Wind Speed Gust Speed Precip Events Conditions
12:53 AM 60.1 °F - 57.9 °F 93% 29.88 in 10.0 mi East 4.6 mph - N/A   Clear
1:53 AM 59.0 °F - 57.0 °F 93% 29.86 in 10.0 mi ESE 3.5 mph - N/A   Clear
2:53 AM 57.0 °F - 55.0 °F 93% 29.85 in 10.0 mi Calm Calm - N/A   Clear
3:53 AM 57.0 °F - 55.0 °F 93% 29.85 in 10.0 mi East 3.5 mph - N/A   Clear
4:53 AM 57.0 °F - 55.0 °F 93% 29.84 in 10.0 mi ENE 5.8 mph - N/A   Clear
5:53 AM 57.0 °F - 54.0 °F 89% 29.84 in 10.0 mi Calm Calm - N/A   Clear
6:53 AM 57.0 °F - 55.9 °F 96% 29.84 in 10.0 mi Calm Calm - N/A   Clear
7:53 AM 61.0 °F - 57.9 °F 90% 29.84 in 10.0 mi East 4.6 mph - N/A   Clear
8:53 AM 64.9 °F - 59.0 °F 81% 29.84 in 10.0 mi ESE 9.2 mph - N/A   Clear
9:53 AM 69.1 °F - 61.0 °F 75% 29.83 in 10.0 mi ESE 6.9 mph - N/A   Clear
10:53 AM 72.0 °F - 62.1 °F 71% 29.81 in 10.0 mi East 4.6 mph - N/A   Clear
11:53 AM 77.0 °F - 63.0 °F 62% 29.78 in 10.0 mi Variable 6.9 mph - N/A   Clear
12:53 PM 80.1 °F 81.5 °F 63.0 °F 56% 29.78 in 10.0 mi SSE 6.9 mph - N/A   Clear
1:53 PM 84.0 °F 84.9 °F 63.0 °F 49% 29.77 in 10.0 mi SSE 8.1 mph - N/A   Clear
2:53 PM 84.9 °F 85.9 °F 63.0 °F 48% 29.75 in 10.0 mi SE 6.9 mph - N/A   Clear
3:53 PM 86.0 °F 86.8 °F 63.0 °F 46% 29.73 in 10.0 mi SSE 9.2 mph - N/A   Clear
4:53 PM 87.1 °F 88.3 °F 64.0 °F 46% 29.71 in 10.0 mi SSE 12.7 mph 18.4 mph N/A   Clear
5:53 PM 87.1 °F 87.8 °F 63.0 °F 44% 29.69 in 10.0 mi SSE 11.5 mph 19.6 mph N/A   Clear
6:53 PM 86.0 °F 87.3 °F 64.0 °F 48% 29.68 in 10.0 mi SE 12.7 mph - N/A   Clear
7:53 PM 82.9 °F 84.4 °F 64.0 °F 53% 29.67 in 10.0 mi SE 15.0 mph 20.7 mph N/A   Clear
8:53 PM 79.0 °F - 64.9 °F 62% 29.67 in 10.0 mi SE 11.5 mph - N/A   Clear
9:53 PM 77.0 °F - 64.9 °F 66% 29.68 in 10.0 mi SE 12.7 mph - N/A   Clear
10:53 PM 75.0 °F - 64.9 °F 71% 29.68 in 10.0 mi SSE 10.4 mph - N/A   Clear
11:53 PM 75.0 °F - 64.0 °F 69% 29.68 in 10.0 mi SSE 15.0 mph - N/A   Clear